Lincoln, RI

4:26 PM EST on February 08, 2016 (GMT -0500)
North Central State

Weather History for KSFZ - November, 2011

Change the Weather History Date:

Monday, November 7, 2011

  Actual Average Record
Temperature  
Mean Temperature 50 °F -  
Max Temperature 62 °F 50 °F 64 °F (2004)
Min Temperature 39 °F 33 °F 26 °F (2002)
Degree Days  
Heating Degree Days 14    
Moisture  
Dew Point 31 °F    
Average Humidity 50    
Maximum Humidity 76    
Minimum Humidity 27    
Precipitation  
Precipitation 0.00 in - - ()
Sea Level Pressure  
Sea Level Pressure 30.25 in    
Wind  
Wind Speed 5 mph (WSW)    
Max Wind Speed 12 mph    
Max Gust Speed -    
Visibility 10 miles    
Events      
Averages and records for this station are not official NWS values.
T = Trace of Precipitation, MM = Missing Value Source: NWS Daily Summary

Daily Weather History Graph

Daily Weather History Graph

Search for Another Location

Airport or City:

Trip Planner

Search our weather history database for the weather conditions in past years. The results will help you decide how hot, cold, wet, or windy it might be!

Date:

Astronomy

Nov. 07, 2011 Rise Set
Actual Time 6:25 AM EST 4:33 PM EST
Civil Twilight 5:56 AM EST 5:02 PM EST
Nautical Twilight 5:22 AM EST 5:35 PM EST
Astronomical Twilight 4:50 AM EST 6:08 PM EST
Moon 2:44 PM EST (11/7) 3:23 AM EST (11/7)
Length of Visible Light 11h 06m
Length of Day
10h 07m
Waxing Gibbous, 91% of the Moon is Illuminated
Nov 7
Waxing Gibbous
Nov 10
Full
Nov 18
Last Quarter
Nov 25
New
Dec 2
First Quarter

Hourly Weather History & Observations

Time (EST) Temp. Windchill Dew Point Humidity Pressure Visibility Wind Dir Wind Speed Gust Speed Precip Events Conditions
12:15 AM 39.2 °F 35.0 °F 32.0 °F 75% 30.32 in 10.0 mi SW 5.8 mph - N/A   Clear
12:35 AM 39.2 °F 35.9 °F 32.0 °F 75% 30.32 in 10.0 mi SW 4.6 mph - N/A   Clear
12:55 AM 41.0 °F 38.0 °F 33.8 °F 76% 30.32 in 10.0 mi WSW 4.6 mph - N/A   Clear
1:15 AM 42.8 °F 39.3 °F 33.8 °F 70% 30.31 in 10.0 mi SW 5.8 mph - N/A   Clear
1:35 AM 42.8 °F 39.3 °F 33.8 °F 70% 30.31 in 10.0 mi WSW 5.8 mph - N/A   Clear
1:55 AM 42.8 °F 39.3 °F 32.0 °F 66% 30.31 in 10.0 mi SW 5.8 mph - N/A   Clear
2:15 AM 42.8 °F 40.1 °F 32.0 °F 66% 30.30 in 10.0 mi SW 4.6 mph - N/A   Clear
2:55 AM 42.8 °F 40.1 °F 30.2 °F 61% 30.29 in 10.0 mi SW 4.6 mph - N/A   Clear
3:15 AM 41.0 °F 38.0 °F 30.2 °F 65% 30.29 in 10.0 mi SW 4.6 mph - N/A   Clear
3:35 AM 42.8 °F 40.1 °F 30.2 °F 61% 30.29 in 10.0 mi SW 4.6 mph - N/A   Clear
4:15 AM 42.8 °F 39.3 °F 30.2 °F 61% 30.29 in 10.0 mi SW 5.8 mph - N/A   Clear
4:35 AM 42.8 °F 39.3 °F 30.2 °F 61% 30.29 in 10.0 mi SW 5.8 mph - N/A   Clear
4:55 AM 42.8 °F 38.0 °F 30.2 °F 61% 30.28 in 10.0 mi SW 8.1 mph - N/A   Clear
5:15 AM 42.8 °F 38.0 °F 30.2 °F 61% 30.28 in 10.0 mi WSW 8.1 mph - N/A   Clear
5:35 AM 42.8 °F 38.6 °F 30.2 °F 61% 30.28 in 10.0 mi SW 6.9 mph - N/A   Clear
5:55 AM 42.8 °F 40.1 °F 30.2 °F 61% 30.28 in 10.0 mi WSW 4.6 mph - N/A   Clear
6:15 AM 42.8 °F 40.1 °F 30.2 °F 61% 30.28 in 10.0 mi SW 4.6 mph - N/A   Clear
6:35 AM 42.8 °F 39.3 °F 30.2 °F 61% 30.29 in 10.0 mi SW 5.8 mph - N/A   Clear
6:55 AM 42.8 °F 40.1 °F 30.2 °F 61% 30.29 in 10.0 mi WSW 4.6 mph - N/A   Clear
7:15 AM 42.8 °F 38.6 °F 30.2 °F 61% 30.29 in 10.0 mi WSW 6.9 mph - N/A   Clear
8:15 AM 46.4 °F 43.5 °F 33.8 °F 62% 30.29 in 10.0 mi WSW 5.8 mph - N/A   Clear
8:35 AM 48.2 °F - 33.8 °F 58% 30.29 in 10.0 mi WSW 6.9 mph - N/A   Clear
9:15 AM 51.8 °F - 33.8 °F 50% 30.28 in 10.0 mi WSW 4.6 mph - N/A   Clear
9:35 AM 51.8 °F - 32.0 °F 47% 30.28 in 10.0 mi SW 3.5 mph - N/A   Clear
10:15 AM 53.6 °F - 30.2 °F 41% 30.27 in 10.0 mi West 6.9 mph - N/A   Clear
10:55 AM 55.4 °F - 30.2 °F 38% 30.26 in 10.0 mi West 8.1 mph - N/A   Clear
11:15 AM 57.2 °F - 30.2 °F 36% 30.25 in 10.0 mi SW 4.6 mph - N/A   Clear
11:35 AM 57.2 °F - 30.2 °F 36% 30.24 in 10.0 mi WSW 5.8 mph - N/A   Clear
12:15 PM 59.0 °F - 30.2 °F 34% 30.23 in 10.0 mi West 5.8 mph - N/A   Clear
12:35 PM 60.8 °F - 30.2 °F 31% 30.23 in 10.0 mi West 6.9 mph - N/A   Clear
12:55 PM 60.8 °F - 30.2 °F 31% 30.22 in 10.0 mi SW 6.9 mph - N/A   Clear
1:15 PM 60.8 °F - 28.4 °F 29% 30.22 in 10.0 mi West 11.5 mph - N/A   Clear
1:35 PM 60.8 °F - 30.2 °F 31% 30.22 in 10.0 mi West 4.6 mph - N/A   Clear
1:55 PM 60.8 °F - 28.4 °F 29% 30.21 in 10.0 mi WSW 5.8 mph - N/A   Clear
2:15 PM 60.8 °F - 28.4 °F 29% 30.21 in 10.0 mi WSW 5.8 mph - N/A   Clear
2:35 PM 62.6 °F - 28.4 °F 27% 30.20 in 10.0 mi West 9.2 mph - N/A   Clear
2:55 PM 62.6 °F - 28.4 °F 27% 30.20 in 10.0 mi WSW 5.8 mph - N/A   Clear
3:15 PM 60.8 °F - 28.4 °F 29% 30.20 in 10.0 mi West 8.1 mph - N/A   Clear
3:55 PM 60.8 °F - 28.4 °F 29% 30.20 in 10.0 mi WSW 4.6 mph - N/A   Clear
4:15 PM 59.0 °F - 28.4 °F 31% 30.20 in 10.0 mi WSW 3.5 mph - N/A   Clear
4:35 PM 57.2 °F - 28.4 °F 33% 30.20 in 10.0 mi Calm Calm - N/A   Clear
5:15 PM 53.6 °F - 28.4 °F 38% 30.21 in 10.0 mi Calm Calm - N/A   Clear
5:35 PM 51.8 °F - 28.4 °F 41% 30.21 in 10.0 mi Calm Calm - N/A   Clear
6:15 PM 51.8 °F - 30.2 °F 44% 30.22 in 10.0 mi SSW 3.5 mph - N/A   Clear
6:55 PM 51.8 °F - 33.8 °F 50% 30.22 in 10.0 mi SSW 3.5 mph - N/A   Clear
7:35 PM 48.2 °F - 33.8 °F 58% 30.23 in 10.0 mi SW 4.6 mph - N/A   Clear
7:55 PM 48.2 °F - 32.0 °F 54% 30.23 in 10.0 mi SW 3.5 mph - N/A   Clear
9:15 PM 50.0 °F - 30.2 °F 47% 30.23 in 10.0 mi WSW 3.5 mph - N/A   Clear
9:35 PM 48.2 °F - 30.2 °F 50% 30.23 in 10.0 mi SW 3.5 mph - N/A   Clear
10:15 PM 48.2 °F - 32.0 °F 54% 30.23 in 10.0 mi WSW 4.6 mph - N/A   Clear
11:15 PM 48.2 °F - 33.8 °F 58% 30.22 in 10.0 mi SW 4.6 mph - N/A   Clear
11:35 PM 48.2 °F - 33.8 °F 58% 30.22 in 10.0 mi SW 3.5 mph - N/A   Clear
11:55 PM 46.4 °F 45.2 °F 33.8 °F 62% 30.22 in 10.0 mi WSW 3.5 mph - N/A   Clear